Location: Cornospital
(48.0620°N, 3.3837°W)
Time: 21:27:12
(UTC+00:00)

Cosmos 2285 Rocket - Pass Details

Date: 17 June 2021
Orbit: 971 x 998 km, 74.0° (Epoch: 03 August)

Event Time Altitude Azimuth Distance (km) Brightness Sun altitude
Rises 21:03:40 0° 204° (SSW) 3,706 6.8 -6.7°
Reaches altitude 10° 21:06:13 10° 206° (SSW) 2,761 6.2 -7.0°
Maximum altitude 21:12:39 80° 293° (WNW) 1,019 4.3 -7.7°
Drops below altitude 10° 21:19:06 10° 21° (NNE) 2,771 6.8 -8.4°
Sets 21:21:40 0° 23° (NNE) 3,720 7.4 -8.7°
